Weather Roundup
Issued by NWS Chicago, IL

Home | Current Version | Previous Version | Graphics & Text | Print | Product List | Glossary On
Versions: 1 2 3 4 5 6 7 8 9 10 11 12 13 14 15 16 17 18 19 20 21 22 23 24 25 26 27 28 29 30 31 32 33 34 35 36 37 38 39 40 41 42 43 44 45 46 47 48 49 50
000
NZUS59 KLOT 201903
HRRLOT

CHICAGO AREA WEATHER ROUNDUP
NATIONAL WEATHER SERVICE CHICAGO/ROMEOVILLE IL
100 PM CST MON FEB 20 2017

NOTE: "FAIR" INDICATES FEW OR NO CLOUDS BELOW 12,000 FEET WITH NO
SIGNIFICANT WEATHER AND/OR OBSTRUCTIONS TO VISIBILITY.

* THESE STATIONS ARE NOT UNDER NWS QUALITY CONTROL. THEY ALSO MAY NOT
  REPORT WEATHER SUCH AS PRECIPITATION OR FOG.

ILZ005-006-012>014-019>023-202000-
NORTHEAST ILLINOIS

CITY           SKY/WX    TMP DP  RH WIND       PRES   REMARKS
OHARE          CLOUDY    67  48  50 SE17      30.03F
MIDWAY         PTSUNNY   67  46  47 SE16      30.04F
AURORA         CLOUDY    68  51  54 S22G30    30.02F
LANSING*       MOSUNNY   65  50  57 SE14G21   30.06F
JOLIET*        MOSUNNY   69  51  52 S13G18    30.04F
WAUKEGAN       CLOUDY    52  44  74 SE12      30.04F HAZE
DUPAGE AIRPORT CLOUDY    67  49  52 S15G26    30.02F
WHEELING       PTSUNNY   65  47  52 S15       30.04F
KANKAKEE*      MOSUNNY   68  48  49 SE17      30.06F
MORRIS*        PTSUNNY   69  52  54 S20G26    30.01F
LEWIS AIRPORT* CLOUDY    66  53  62 S21G28    30.04S
NORTHERLY ISL    N/A     49  40  71 SE5         N/A
$$

WIZ051-052-058>065-066-070>072-202000-
SOUTHEAST WISCONSIN

CITY           SKY/WX    TMP DP  RH WIND       PRES   REMARKS
MILWAUKEE      CLOUDY    51  43  74 SE10      30.05F HAZE
KENOSHA*       CLOUDY    54  45  71 SE14      30.04F HAZE
RACINE*        CLOUDY    50  42  74 SE12      30.06F HAZE
WAUKESHA       MOSUNNY   55  46  71 SE10      30.03F FOG
$$

INZ001>003-010>013-019-020-202000-
NORTHWEST INDIANA

CITY           SKY/WX    TMP DP  RH WIND       PRES   REMARKS
GARY*          PTSUNNY   66  41  39 SE14G26   30.06F
MICHIGAN CITY* NOT AVBL
RENSSELAER*    NOT AVBL
VALPARAISO     SUNNY     66  47  50 SE13G26   30.08F
$$

LMZ740>746-202000-
SOUTHERN LAKE MICHIGAN

STATION/POSITION TIME  SKY/WX   TEMP WIND        PRES    VSBY
                                AIR  DIR/SP/G
                 (UTC)          (F)  (DEG/KT/KT) (MB)    (MI)
HARRISON CRIB    1840            57  150/ 20/ 20   N/A
BURNHAM HARBOR   1900            50   CALM  /  9   N/A
CALUMET HARBOR   1830            64  160/ 12/ 16 1017.2F
BURNS HARBOR     1840            65  160/ 11/ 20 1018.6F
MICHIGAN CITY    1840            62  130/ 16/ 19   N/A
$$

ABBREVIATIONS USED IN REMARKS
   TC - TEMPERATURE IN CELSIUS
  WCI - WIND CHILL INDEX
   HX - HEAT INDEX
  VSB - VISIBILITY
$$




USA.gov is the U.S. government's official web portal to all federal, state and local government web resources and services.